Duchifat 3
1 44854U 19089C   25114.53546908  .00062707  00000-0  14097-2 0  9990
2 44854  36.9449 287.0889 0001379 274.5797  85.4801 15.42269997295821
TO-108
1 44881U 19093C   25114.82495827  .00002152  00000-0  25510-3 0  9991
2 44881  97.7935 191.4312 0014355  27.6916 332.5061 14.85487693289281
FloripaSat 1
1 44885U 19093G   25114.79836812  .00011585  00000-0  98703-3 0  9998
2 44885  97.8168 202.3261 0010293   9.5866 350.5550 14.97886331289894
RS-44
1 44909U 19096E   25113.64637954  .00000017  00000-0  19513-4 0  9998
2 44909  82.5190 258.4602 0218088  45.5531 316.3183 12.79740284248687
UPMSat 2
1 46276U 20061E   25114.66978504  .00081680  00000-0  91299-3 0  9998
2 46276  97.2480 187.7101 0001504 138.2206 221.9168 15.62485446258283
SALSAT
1 46495U 20068K   25113.88370132  .00012594  00000-0  55461-3 0  9993
2 46495  97.8572  89.7902 0010633 334.3151  25.7554 15.21938745251423
CubeSX-Sirius-HSE
1 47951U 21022V   25113.82911782  .00225213  00000-0  15518-2 0  9990
2 47951  97.4198  24.3806 0010948 107.8172 252.4287 15.73879022226449
CubeSX-HSE
1 47952U 21022W   25113.72152210  .00234686  00000-0  15823-2 0  9996
2 47952  97.4208  24.5080 0010520 104.6410 255.6021 15.74366693226441
GRBAlpha
1 47959U 21022AD  25114.07847350  .00236356  00000-0  16277-2 0  9998
2 47959  97.4198  25.0039 0010526 106.9831 253.2588 15.73866809225325
TUBIN
1 48900U 21059X   25114.49430937  .00063495  00000-0  90652-3 0  9992
2 48900  97.6724 280.1341 0002769  61.4680 298.6852 15.56061834212864
LEDSAT
1 49069U 21073D   25113.92352566  .00070965  00000-0  10763-2 0  9997
2 49069  97.3915 193.7271 0011282 238.6320 121.3830 15.54309693204179
CUTE
1 49263U 21088D   25113.62816085  .00023042  00000-0  48742-3 0  9990
2 49263  97.4526 188.5808 0009310  60.5730 299.6447 15.45101972197172
TeikyoSat 4
1 49396U 21102B   25113.69006472  .00002987  00000-0  20114-3 0  9990
2 49396  97.4154 153.8053 0010828 298.1474  61.8660 15.07401261189486
Z-Sat
1 49399U 21102E   25113.89752108  .00006104  00000-0  33931-3 0  9995
2 49399  97.3856 156.8200 0016434 264.7983  95.1373 15.13934650189916
KOSEN 1
1 49402U 21102H   25114.85071001  .00012549  00000-0  59122-3 0  9993
2 49402  97.3763 160.8228 0014747 234.4815 125.5045 15.19553575190348
HO-113
1 50466U 21131B   25113.81484284  .00001028  00000-0  33545-3 0  9994
2 50466  98.5084 203.4037 0002936 275.4631  84.6222 14.40743039174713
IRIS-A
1 51044U 22002BN  25114.69478208  .00282339  00000-0  15008-2 0  9990
2 51044  97.3281 192.7178 0003400 255.5290 104.5601 15.79708215182605
Foresail-1
1 52766U 22057AL  25113.65285722  .00164269  00000-0  10622-2 0  9992
2 52766  97.6034 260.5068 0001306 162.9889 197.1420 15.75596594162466
SNUGLITE 2
1 52899U 22065F   25114.26094291  .00002267  00000-0  45065-3 0  9994
2 52899  98.1608 256.7069 0006450 254.7285 105.3204 14.63067183149716
IO-117
1 53106U 22080B   25051.21822557 -.00000003  00000-0  00000+0 0  9995
2 53106  70.1434 106.3440 0008542  48.0089 312.1297  6.42557744 61200
UmKA 1 (RS40S)
1 57172U 23091G   25113.91293665  .00009685  00000-0  52473-3 0  9992
2 57172  97.5629 169.5470 0016022 132.8967 227.3612 15.14704502100419
CubeBel-2 (EU11S)
1 57175U 23091K   25114.51952959  .00016589  00000-0  81015-3 0  9995
2 57175  97.5628 171.0312 0013911 139.2123 221.0155 15.18254723100561
VERONIKA
1 58261U 23174F   25114.21408077  .00114234  00000-0  14648-2 0  9991
2 58261  97.4158 198.0203 0007934 209.0827 150.9988 15.58734362 81432
ENSO
1 58470U 23185J   25114.83611218  .00075296  00000-0  13022-2 0  9995
2 58470  97.3769 188.6545 0007812 232.9687 127.0850 15.50664039 77937
EIRSAT-1
1 58472U 23185L   25114.86838539  .00122483  00000-0  15918-2 0  9994
2 58472  97.3744 189.9352 0007293 229.7824 130.2795 15.58353450 78027
SONATE-2
1 59112U 24043Q   25112.77423841  .00025212  00000-0  76882-3 0  9994
2 59112  97.5058 243.0751 0010376 282.2583  77.7497 15.33884270 63004
MO-122
1 60209U 24125G   25113.05895405  .00025728  00000-0  77402-3 0  9996
2 60209  97.2868 325.2533 0018118 310.8331  49.1341 15.34193696 44669
GRBBeta
1 60237U 24128C   25113.74809398  .00006979  00000-0  53021-3 0  9990
2 60237  61.9913 242.7871 0047662  47.1456 313.3623 15.02155377 43163
Curium One
1 60242U 24128H   25113.85684382  .00011507  00000-0  81532-3 0  9993
2 60242  61.9813 241.3424 0047628  42.7467 317.7314 15.04298224 43203
ROBUSTA-3A
1 60243U 24128J   25112.51598190  .00012284  00000-0  88161-3 0  9995
2 60243  61.9885 246.7062 0045832  40.3028 320.1445 15.03835917 42995
CatSat
1 60246U 24125J   25114.12104897  .00012968  00000-0  44686-3 0  9994
2 60246  97.2647 326.0223 0041833 259.0288 100.6245 15.29290454 42887
HYPERVIEW-1G (RS66S)
1 61772U 24199AP  25114.89995078  .00035724  00000-0  11018-2 0  9990
2 61772  97.3613 343.9006 0013916   5.0134 355.1245 15.33405902 69958
AO-123
1 61781U 24199AY  25114.54367615  .00011463  00000-0  42525-3 0  9994
2 61781  97.3624 342.8767 0016133   7.9505 352.1987 15.27634305 69852
ZIMSAT 2
1 61783U 24199BA  25114.89015767  .00058001  00000-0  15837-2 0  9996
2 61783  97.3598 344.2047 0013940   3.6115 356.5228 15.37118620 73123
HADES-R (SO-124)
1 62690U 25009CK  25113.63921990  .00047309  00000-0  18635-2 0  9998
2 62690  97.4110 194.7465 0003313 220.1773 139.9220 15.25442439 14982
HYDRA-T
1 62692U 25009CM  25113.04103535  .00048219  00000-0  18920-2 0  9990
2 62692  97.4106 194.1713 0003476 217.1050 142.9948 15.25566465 14890
JINJUSat 1B
1 63210U 25052A   25112.67245828  .00018147  00000-0  85998-3 0  9992
2 63210  97.4473   7.4301 0006265 117.0386 243.1489 15.19346691  5975
NUSHSAT 1
1 63211U 25052B   25112.21150162  .00021198  00000-0  10017-2 0  9998
2 63211  97.4463   6.9708 0006228 121.9052 238.2789 15.19413573  5908
TEVEL2-4
1 63213U 25052D   25113.66557349  .00018399  00000-0  87486-3 0  9992
2 63213  97.4390   8.3524 0004892 127.0704 233.0979 15.19233316  6121
TEVEL2-5
1 63214U 25052E   25113.66571348  .00018259  00000-0  86850-3 0  9997
2 63214  97.4378   8.3527 0005055 128.7341 231.4346 15.19222948  6127
TEVEL2-6
1 63215U 25052F   25113.66662270  .00018718  00000-0  89116-3 0  9991
2 63215  97.4380   8.3517 0004929 127.3103 232.8582 15.19184879  6127
TEVEL2-1
1 63217U 25052H   25112.15620226  .00021012  00000-0  10069-2 0  9992
2 63217  97.4350   6.8420 0004849 141.3671 218.7911 15.18934879  5893
TEVEL2-2
1 63218U 25052J   25114.06682200  .00018824  00000-0  90093-3 0  9998
2 63218  97.4363   8.7212 0004967 139.4882 220.6723 15.19001377  6186
TEVEL2-3
1 63219U 25052K   25114.06683370  .00017164  00000-0  82219-3 0  9995
2 63219  97.4366   8.7228 0004559 122.5286 237.6390 15.18992062  6182
TEVEL2-8
1 63237U 25052AD  25112.64575970  .00019068  00000-0  94409-3 0  9992
2 63237  97.4416   7.2882 0008557 167.2062 192.9390 15.17795601  5965
TEVEL2-9
1 63238U 25052AE  25112.64650097  .00018664  00000-0  92527-3 0  9997
2 63238  97.4423   7.2888 0008645 167.5371 192.6078 15.17754414  5961
TEVEL2-7
1 63239U 25052AF  25112.64734347  .00018643  00000-0  92520-3 0  9999
2 63239  97.4421   7.2872 0008699 167.9380 192.2064 15.17717580  5960
HYDRA-W
1 63490U 25052BL  25113.93066203  .00036675  00000-0  16754-2 0  9999
2 63490  97.4374   8.6067 0013084 164.3128 195.8515 15.20403854  6165
HADES-ICM
1 63492U 25052BN  25114.19786678  .00034815  00000-0  16035-2 0  9991
2 63492  97.4381   8.8626 0013250 167.3872 192.7697 15.20131847  6204
